Location: Ellerstadt
(49.4644°N, 8.2615°E)
Time: 04:43:31
(UTC+00:00)

ASTEX 1 - Pass Details

Date: 03 March 2021
Orbit: 720 x 743 km, 92.7° (Epoch: 11 April)

Event Time Altitude Azimuth Distance (km) Brightness Sun altitude
Rises 19:19:35 0° 6° (N) 3,152 6.8 -21.2°
Reaches altitude 10° 19:21:53 10° 8° (N) 2,224 6.0 -21.5°
Maximum altitude 19:26:48 78° 96° (E) 742 3.2 -22.3°
Enters shadow 19:30:12 20° 180° (S) 1,629 5.0 -22.8°
